Location: Le Lonzac
(45.4645°N, 1.7278°E)
Time: 02:05:40
(UTC+00:00)

Daily predictions for brighter satellites

Satellite Brightness Start Highest point End
(mag) Time Altitude Azimuth Time Altitude Azimuth Time Altitude Azimuth
USA 215 4.3 03:20:55 10° E 03:25:43 37° NE 03:25:43 37° NE
Cosmos 1943 Rocket 2.7 04:06:38 56° ENE 04:06:38 56° ENE 04:11:29 10° NNE
CZ-2C R/B 4.3 04:04:11 10° SE 04:08:56 31° ENE 04:13:24 11° N
CENTAUR R/B 2.4 04:16:08 84° ESE 04:16:08 84° ESE 04:23:05 10° NE
Cosmos 2297 3.8 04:21:06 76° ENE 04:21:06 76° ENE 04:26:31 10° NNE
NOSS 3-2 (A) 3.5 04:27:49 62° N 04:27:49 62° N 04:33:32 10° NE
Cosmos 2278 Rocket 4.2 04:33:50 15° N 04:33:50 15° N 04:34:57 10° N
NOSS 3-2 (C) 3.3 04:33:35 62° SSW 04:34:36 82° SE 04:41:01 10° NE
Envisat 3.9 04:31:21 10° NNE 04:36:15 47° E 04:41:08 10° S
Cosmos 2098 Rocket 4.4 04:37:48 10° SSE 04:41:21 37° E 04:45:44 10° NNE
Meteor 2-3 Rocket 3.6 04:36:05 10° S 04:41:44 88° W 04:47:30 10° N
Cosmos 968 Rocket 3.4 04:42:38 34° SSW 04:44:57 81° ESE 04:50:07 10° NNE
Genesis I 3.7 04:49:24 57° SSE 04:49:24 57° SSE 04:52:40 10° SE
Cosmos 921 Rocket 3.2 04:50:35 61° NNE 04:51:12 73° ENE 04:55:39 10° SSE
Meteor 1-26 Rocket 4.2 04:53:51 25° NNW 04:57:26 73° W 05:03:10 10° S
Cosmos 1812 3.1 04:56:57 48° NNE 04:57:45 63° E 05:01:33 10° SSE
Gbstr 26 Del rocket 4.4 05:01:04 23° S 05:01:04 23° S 05:03:23 10° SSE
USA 238 DEB 3.5 05:00:10 38° WSW 05:02:42 65° NW 05:09:34 10° NE
USA 238 3.5 05:00:14 38° WSW 05:02:49 66° NW 05:09:40 10° NE
Cosmos 1151 Rocket 3.3 05:01:35 19° N 05:04:38 69° E 05:08:59 10° SSE
Cosmos 2344 3.8 05:03:34 38° W 05:05:45 47° NW 05:13:28 10° NE
Cosmos 1766 Rocket 4.1 05:01:46 10° S 05:06:02 57° E 05:10:17 10° NNE
USA 215 3.2 05:02:58 10° ESE 05:09:30 85° NE 05:13:03 30° NW
Kosmos-917 4.5 05:12:30 38° N 05:12:30 38° N 05:16:12 10° NE
Cosmos 1782 3.8 05:15:55 31° SW 05:15:55 31° SW 05:18:14 10° SSW
Meteor 1-31 Rocket 2.8 05:10:48 10° NNE 05:14:42 83° ESE 05:18:36 10° SSW
Cosmos 2279 Rocket 4.0 05:09:03 10° N 05:15:16 80° E 05:21:28 10° S
Cosmos 1328 Rocket 3.9 05:12:55 10° N 05:17:18 66° E 05:21:38 10° SSE
SJ-12 3.8 05:16:01 10° N 05:20:07 63° WNW 05:24:12 10° SSW
Cosmos 2369 Rocket 2.0 05:14:50 10° SSW 05:20:25 79° WNW 05:26:04 10° NNE
FALCON 9 DEB 3.7 05:21:07 42° N 05:21:07 42° N 05:23:59 10° NE
Cosmos 1862 3.2 05:18:21 10° S 05:22:17 83° E 05:26:16 10° N
COSMO-SKYMED 1 2.5 05:19:20 10° S 05:23:37 60° W 05:25:48 28° NNW
H-2A R/B 2.8 05:24:30 10° N 05:28:04 47° WNW 05:31:41 10° SSW
Cosmos 1634 Rocket 4.1 05:24:12 10° NNW 05:30:16 52° W 05:36:16 10° SSW
Cosmos 836 Rocket 4.4 05:27:51 20° NNW 05:31:33 68° WSW 05:36:43 10° S
CZ-4B R/B 3.7 05:34:00 10° NNE 05:37:27 45° E 05:40:53 10° S
CZ-4B R/B 4.0 05:37:16 10° ESE 05:39:45 20° ENE 05:42:13 10° NNE
MOS 1-B Rocket 4.4 05:34:02 10° SSW 05:39:57 38° W 05:44:43 13° NNW
Cosmos 1408 Rocket 3.9 05:37:09 10° S 05:41:24 64° E 05:45:40 10° NNE
Cosmos 1656 Rocket 3.5 05:38:43 10° SSW 05:44:06 70° WNW 05:49:34 10° NNE
Cosmos 1503 Rocket 4.0 05:39:18 10° SSW 05:44:33 88° WNW 05:49:56 10° NNE
CZ-4C R/B 2.8 05:41:32 10° S 05:44:36 53° W 05:46:01 27° NW
DMSP B5D2-2 4.1 05:39:48 10° SSE 05:45:01 83° ENE 05:50:16 10° NNW
CZ-2C R/B 3.1 05:43:57 10° SSW 05:49:06 40° W 05:54:10 10° NNW
Cosmos 1943 Rocket 3.2 05:48:15 22° WNW 05:50:04 25° NW 05:54:44 10° N
Cosmos 1486 Rocket 4.2 05:47:12 10° SW 05:52:18 47° WNW 05:57:24 10° N
FALCON 9 DEB 4.3 05:56:51 19° NNW 05:57:24 20° N 05:59:39 10° NE
SL-8 R/B 3.7 05:54:22 21° WNW 05:57:34 83° SSW 06:02:21 10° ESE
Cosmos 1515 Rocket 3.5 05:53:14 10° N 05:57:38 85° W 06:01:58 10° S
Meteor 2-15 4.4 05:52:53 10° NNW 05:58:57 73° W 06:04:58 10° S
Cosmos 2180 Rocket 4.5 05:54:28 10° NNW 06:00:33 62° W 06:06:34 10° S
Meteor 1-27 Rocket 3.9 05:55:00 10° N 06:00:40 81° E 06:06:24 10° SSE
COSMOS 2487 4.3 06:01:35 10° N 06:04:30 27° ENE 06:07:24 10° ESE
Cosmos 773 Rocket 4.0 05:59:45 10° NNW 06:05:01 88° WSW 06:10:12 10° SSE
SJ 16-02 2.0 06:01:37 10° S 06:05:55 58° ESE 06:10:13 10° NNE
CENTAUR R/B 3.5 06:03:21 15° W 06:07:38 30° NNW 06:14:04 10° NNE
NOAA 11 4.2 06:03:38 10° N 06:09:02 61° WNW 06:14:25 10° SSW
Alouette 2 Rocket 3.7 06:07:09 10° N 06:11:00 60° ENE 06:14:31 10° SSE
Meteor 2-19 Rocket 4.4 06:06:20 10° SSW 06:12:23 74° W 06:18:28 10° N
Cosmos 1340 Rocket 3.0 06:10:16 10° S 06:14:11 75° E 06:18:11 10° NNE
NOAA 12 4.1 06:08:56 10° NNE 06:14:14 83° WNW 06:19:29 10° SSW
Envisat 4.0 06:10:55 10° N 06:14:59 25° WNW 06:19:04 10° WSW
Cosmos 1500 Rocket 3.6 06:13:09 10° S 06:17:36 89° ESE 06:22:07 10° N
SL-27 R/B 2.4 06:14:39 10° NNW 06:18:15 72° WSW 06:21:46 10° SSE
Cosmos 1939 Rocket 2.7 06:16:49 10° N 06:20:46 76° WNW 06:24:38 10° SSW
Cosmos 2098 Rocket 4.3 06:19:42 10° WSW 06:22:41 20° WNW 06:26:11 10° NNW
NOSS 3-2 (C) 4.4 06:21:17 10° W 06:26:19 28° NNW 06:32:03 10° NNE
Cosmos 1805 Rocket 3.9 06:24:54 10° S 06:29:16 70° E 06:33:37 10° NNE
Sich 1 3.8 06:26:55 10° S 06:31:07 56° E 06:35:18 10° NNE
Okean O Rocket 4.0 06:27:19 10° NE 06:31:10 28° E 06:34:58 10° SSE
H-2A R/B 2.3 06:27:39 10° S 06:31:45 48° W 06:35:59 10° NNW
Cosmos 2026 Rocket 4.4 06:25:40 10° S 06:31:59 73° E 06:38:16 10° NNE
Meteor 1-25 Rocket 4.5 06:27:55 10° S 06:33:33 78° E 06:39:08 10° NNE
ATLAS 3B R/B 3.0 06:27:35 10° SSW 06:34:03 71° ESE 06:40:51 10° NE
Cosmos 1174 3.1 06:34:34 10° SSW 06:37:31 87° SE 06:40:38 10° NE
Cosmos 1500 4.1 06:34:03 10° S 06:37:46 55° E 06:41:31 10° NNE
ATLAS 5 CENTAUR R/B 1.4 06:34:11 10° SW 06:37:59 84° SE 06:42:17 10° NE
ADEOS 4.3 06:34:38 10° N 06:39:08 30° WNW 06:43:38 10° WSW
Cosmos 158 Rocket 4.1 06:35:15 10° NNW 06:40:24 85° ENE 06:45:39 10° SSE
